Regional Weather Roundup
Issued by NWS

Home | Current Version | Previous Version | Graphics & Text | Print | Product List | Glossary On
Versions: 1 2 3 4 5 6 7 8 9 10 11 12 13 14 15 16 17 18 19 20 21 22 23 24 25 26 27 28 29 30 31 32 33 34 35 36 37 38 39 40 41 42 43 44 45 46 47 48 49 50
000
ASUS43 KBIS 011820
RWRND

NORTH DAKOTA REGIONAL WEATHER ROUNDUP
NATIONAL WEATHER SERVICE BISMARCK ND
100 PM CDT FRI AUG 01 2014

NOTE: "FAIR" INDICATES FEW OR NO CLOUDS BELOW 12,000 FEET WITH NO
SIGNIFICANT WEATHER AND/OR OBSTRUCTIONS TO VISIBILITY.


NDZ001>003-009>011-017-011900-
NORTHWEST NORTH DAKOTA

CITY           SKY/WX    TMP DP  RH WIND       PRES   REMARKS
WILLISTON      CLOUDY    75  61  61 NE6       30.11R
6HR MIN TEMP:  66; 6HR MAX TEMP:  75; 6HR PCP:  0.04;

MINOT          MOSUNNY   79  60  52 E7        30.09S
MINOT AFB      MOSUNNY   80  61  53 E6        30.09S
$$

NDZ018>021-031>035-040>046-011900-
SOUTHWEST NORTH DAKOTA

CITY           SKY/WX    TMP DP  RH WIND       PRES   REMARKS
BISMARCK       SUNNY     86  57  37 S10       30.07F
6HR MIN TEMP:  58; 6HR MAX TEMP:  87;

DICKINSON      CLOUDY    79  60  52 NE10      30.08R
GARRISON         N/A     81  62  52 SE7       30.09S
6HR MIN TEMP:  59; 6HR MAX TEMP:  81;

HETTINGER ARPT CLOUDY    79  57  46 E7        30.07F
$$

NDZ004>008-012>016-024-026-027-054-011900-
NORTHEAST NORTH DAKOTA

CITY           SKY/WX    TMP DP  RH WIND       PRES   REMARKS
GRAND FORKS    MOSUNNY   80  59  48 NE7       30.07F
GRND FRKS AFB  MOSUNNY   79  60  52 N5        30.09F
DEVILS LAKE    SUNNY     79  63  57 SE7       30.08F
$$

NDZ022-023-025-028>030-036>039-047>053-011900-
SOUTHEAST NORTH DAKOTA

CITY           SKY/WX    TMP DP  RH WIND       PRES   REMARKS
FARGO          SUNNY     82  61  48 N10       30.07F
6HR MIN TEMP:  60; 6HR MAX TEMP:  82;

JAMESTOWN      SUNNY     81  59  47 NE6       30.09S
$$



USA.gov is the U.S. government's official web portal to all federal, state and local government web resources and services.